Location: Boiro
(42.6475°N, 8.8834°W)
Time: 03:29:45
(UTC+01:00)

S-56A Canister/Altair - Pass Details

Date: 06 December 2021
Orbit: 633 x 2499 km, 38.9° (Epoch: 18 January)

Event Time Altitude Azimuth Distance (km) Brightness Sun altitude
Rises 22:22:05 0° 205° (SSW) 5,993 12.2 -46.9°
Reaches altitude 10° 22:27:12 10° 194° (SSW) 4,786 11.5 -47.8°
Enters shadow 22:28:41 13° 190° (S) 4,452 11.3 -48.1°
